Home   Weather   Bread and Cheese   Past weeks
Flag for Canada

Past Weather in Bread and Cheese, Newfoundland and Labrador, Canada — Yesterday and Last 2 Weeks

Currently: 45 °F. Drizzle. Low clouds. (Weather station: St. John's, Canada). See more current weather

Past Weather in Bread and Cheese — Graph

°F

Bread and Cheese Temperature Yesterday

Maximum temperature yesterday: 55 °F (at 3:51 pm)
Minimum temperature yesterday: 45 °F (at 12:02 am)
Average temperature yesterday: 49 °F

High & Low Weather Summary for the Past Weeks

  Temperature Humidity Pressure
High 68 °F (May 6, 2:30 pm) 100% (Apr 24, 4:30 am) 30.44 "Hg (Apr 24, 4:30 am)
Low 23 °F (Apr 28, 4:30 am) 33% (May 5, 1:30 pm) 29.21 "Hg (Apr 25, 6:17 am)
Average 40 °F 90% 29.88 "Hg
* Reported Apr 24 1:30 am — May 9 1:30 am, Bread and Cheese. Weather by CustomWeather, © 2026

Note: Actual official high and low records may vary slightly from our data, if they occured in-between our weather recording intervals... More about our weather records

Bread and Cheese Weather History for the Previous 24 Hours

Scroll right to see more
  Conditions Comfort    
Time   Temp Weather Wind   Humidity Barometer Visibility
1:30 am
Sat, May 9
46 °F Drizzle. Mostly cloudy. 25 mph 100% 29.52 "Hg 10 mi
12:57 am 46 °F Drizzle. Mostly cloudy. 23 mph 100% 29.52 "Hg 10 mi
12:30 am 46 °F Drizzle. Fog. 22 mph 100% 29.52 "Hg 3 mi
11:54 pm
Fri, May 8
48 °F Drizzle. Fog. 21 mph 100% 29.54 "Hg 1 mi
11:38 pm 50 °F Drizzle. Low clouds. 23 mph 100% 29.54 "Hg 12 mi
11:17 pm 50 °F Light rain. Mostly cloudy. 30 mph 100% 29.54 "Hg 15 mi
10:53 pm 50 °F Light rain. Mostly cloudy. 29 mph 100% 29.55 "Hg 15 mi
10:30 pm 48 °F Drizzle. Fog. 25 mph 100% 29.56 "Hg 6 mi
10:03 pm 48 °F Drizzle. Low clouds. 22 mph 100% 29.57 "Hg 15 mi
9:30 pm 48 °F Light rain. Low clouds. 21 mph 100% 29.57 "Hg 12 mi
9:19 pm 48 °F Light rain. Low clouds. 17 mph 100% 29.58 "Hg 15 mi
9:02 pm 48 °F Light rain. Low clouds. 21 mph 100% 29.57 "Hg 12 mi
8:30 pm 46 °F Light rain. Mostly cloudy. 18 mph 100% 29.58 "Hg 15 mi
8:03 pm 45 °F Light rain. Mostly cloudy. 21 mph 100% 29.58 "Hg 12 mi
7:50 pm 45 °F Light rain. Fog. 21 mph 100% 29.59 "Hg 2 mi
7:14 pm 46 °F Light rain. Fog. 21 mph 100% 29.58 "Hg 1 mi
6:30 pm 46 °F Fog. 18 mph 100% 29.60 "Hg 1 mi
6:12 pm 46 °F Fog. 17 mph 100% 29.60 "Hg 1 mi
5:43 pm 46 °F Fog. 16 mph 100% 29.61 "Hg 1 mi
5:26 pm 46 °F Fog. 16 mph 100% 29.61 "Hg 1 mi
5:01 pm 46 °F Mostly cloudy. 16 mph 93% 29.62 "Hg 15 mi
4:30 pm 55 °F More clouds than sun. 22 mph 94% 29.63 "Hg 15 mi
3:51 pm 55 °F Mostly cloudy. 16 mph 94% 29.64 "Hg 15 mi
3:03 pm 54 °F Cloudy. 15 mph 100% 29.66 "Hg 12 mi
2:42 pm 54 °F Mostly cloudy. 14 mph 94% 29.66 "Hg 15 mi
2:30 pm 54 °F Low clouds. 14 mph 94% 29.66 "Hg 15 mi
2:09 pm 54 °F Low clouds. 15 mph 94% 29.67 "Hg 15 mi
1:48 pm 52 °F Mostly cloudy. 14 mph 94% 29.65 "Hg 15 mi
1:02 pm 48 °F Cloudy. 12 mph 100% 29.65 "Hg 15 mi
12:30 pm 52 °F Mostly cloudy. 8 mph 94% 29.65 "Hg 15 mi
11:47 am 52 °F More clouds than sun. 10 mph 100% 29.66 "Hg 15 mi
10:55 am 50 °F Light rain. Fog. 18 mph 100% 29.66 "Hg 2 mi
10:30 am 50 °F Cloudy. 20 mph 100% 29.65 "Hg 15 mi
10:22 am 50 °F Mostly cloudy. 22 mph 100% 29.65 "Hg 15 mi
10:07 am 50 °F Drizzle. Cloudy. 18 mph 100% 29.66 "Hg 15 mi
9:43 am 50 °F Light rain. Fog. 14 mph 100% 29.67 "Hg 2 mi
8:55 am 50 °F Light rain. Fog. 17 mph 100% 29.68 "Hg 1 mi
8:46 am 50 °F Light rain. Fog. 17 mph 100% 29.68 "Hg 1 mi
8:30 am 50 °F Rain. Fog. 20 mph 100% 29.69 "Hg 1 mi
8:23 am 50 °F Rain. Fog. 20 mph 100% 29.69 "Hg 1 mi
7:59 am 50 °F Rain. Fog. 20 mph 100% 29.69 "Hg 2 mi
7:47 am 50 °F Rain. Fog. 21 mph 100% 29.70 "Hg 1 mi
7:25 am 50 °F Heavy rain. Fog. 21 mph 100% 29.70 "Hg 1 mi
7:13 am 50 °F Light rain. Fog. 20 mph 100% 29.69 "Hg 2 mi
6:51 am 50 °F Light rain. Fog. 17 mph 100% 29.69 "Hg 3 mi
6:30 am 50 °F Light rain. Fog. 20 mph 100% 29.70 "Hg 3 mi
6:07 am 50 °F Light rain. More clouds than sun. 21 mph 100% 29.70 "Hg 12 mi
5:45 am 50 °F Rain. Fog. 20 mph 100% 29.70 "Hg 1 mi
5:30 am 50 °F Light rain. More clouds than sun. 22 mph 100% 29.70 "Hg 8 mi
5:15 am 48 °F Light rain. More clouds than sun. 25 mph 100% 29.70 "Hg 12 mi
4:59 am 48 °F Rain. Mostly cloudy. 22 mph 100% 29.71 "Hg 10 mi
4:44 am 48 °F Light rain. Fog. 20 mph 100% 29.71 "Hg 3 mi
4:12 am 48 °F Light rain. Mostly cloudy. 22 mph 100% 29.71 "Hg 8 mi
3:54 am 48 °F Light rain. Fog. 22 mph 100% 29.72 "Hg 2 mi
2:57 am 48 °F Drizzle. Low clouds. 28 mph 100% 29.73 "Hg 12 mi
Weather by CustomWeather, © 2026

See weather overview